• In Hungary
  • List of Countries
  • For 7 days
  • Water Temperature
  • Satellite Maps
  • Weather Map
  • News
  • Weather Widgets
  • user-avatar
    Login

    Hourly Weather Midlothian

    Today, 23 November, Thursday

    Time Temperature Precipitation Wind Pressure Humidity
    00:00 +4°C° 1.2 mm 2 mps 709 mmHg 96%
    01:00 +3°C° 0.9 mm 3 mps 709 mmHg 94%
    02:00 +3°C° 0.9 mm 3 mps 710 mmHg 92%
    03:00 +3°C° 0.9 mm 3 mps 710 mmHg 90%
    04:00 +1°C° 0.6 mm 5 mps 710 mmHg 89%
    05:00 +1°C° 0.6 mm 6 mps 710 mmHg 87%
    06:00 -1°C° 0.6 mm 7 mps 711 mmHg 85%
    07:00 -1°C° 0 mm 7 mps 711 mmHg 85%
    08:00 -1°C° 0 mm 7 mps 712 mmHg 85%
    09:00 -1°C° 0 mm 6 mps 712 mmHg 85%
    10:00 +1°C° 0 mm 6 mps 713 mmHg 84%
    11:00 +2°C° 0 mm 5 mps 714 mmHg 82%
    12:00 +2°C° 0 mm 5 mps 715 mmHg 80%
    13:00 +2°C° 0 mm 5 mps 716 mmHg 80%
    14:00 +1°C° 0 mm 5 mps 718 mmHg 80%
    15:00 +1°C° 0 mm 5 mps 719 mmHg 81%
    16:00 0°C° 0 mm 5 mps 720 mmHg 82%
    17:00 -1°C° 0 mm 5 mps 722 mmHg 83%
    18:00 -1°C° 0 mm 5 mps 723 mmHg 84%
    19:00 -1°C° 0 mm 5 mps 724 mmHg 84%
    20:00 -2°C° 0 mm 5 mps 725 mmHg 83%
    21:00 -2°C° 0 mm 5 mps 725 mmHg 83%
    22:00 -2°C° 0 mm 5 mps 726 mmHg 83%
    23:00 -2°C° 0 mm 5 mps 726 mmHg 83%

    Tomorrow, 24 November, Friday

    Time Temperature Precipitation Wind Pressure Humidity
    00:00 -2°C° 0 mm 5 mps 727 mmHg 83%
    01:00 -2°C° 0 mm 5 mps 727 mmHg 83%
    02:00 -2°C° 0 mm 5 mps 727 mmHg 83%
    03:00 -4°C° 0 mm 5 mps 727 mmHg 83%
    04:00 -4°C° 0 mm 5 mps 728 mmHg 83%
    05:00 -3°C° 0 mm 4 mps 728 mmHg 83%
    06:00 -3°C° 0 mm 4 mps 728 mmHg 83%
    07:00 -4°C° 0 mm 5 mps 729 mmHg 82%
    08:00 -2°C° 0 mm 5 mps 729 mmHg 80%
    09:00 -2°C° 0 mm 5 mps 730 mmHg 79%
    10:00 -2°C° 0 mm 6 mps 730 mmHg 75%
    11:00 -1°C° 0 mm 7 mps 730 mmHg 70%
    12:00 -1°C° 0 mm 7 mps 730 mmHg 66%
    13:00 -1°C° 0 mm 7 mps 730 mmHg 67%
    14:00 -1°C° 0 mm 7 mps 730 mmHg 68%
    15:00 -2°C° 0 mm 7 mps 730 mmHg 69%
    16:00 -2°C° 0 mm 6 mps 730 mmHg 71%
    17:00 -3°C° 0 mm 6 mps 730 mmHg 73%
    18:00 -3°C° 0 mm 6 mps 730 mmHg 75%
    19:00 -3°C° 0 mm 6 mps 730 mmHg 76%
    20:00 -3°C° 0 mm 6 mps 730 mmHg 77%
    21:00 -4°C° 0 mm 6 mps 730 mmHg 77%
    22:00 -4°C° 0 mm 6 mps 730 mmHg 78%
    23:00 -3°C° 0 mm 6 mps 730 mmHg 79%

    Day after tomorrow, 25 November, Saturday

    Time Temperature Precipitation Wind Pressure Humidity
    00:00 -3°C° 0 mm 6 mps 730 mmHg 79%
    01:00 -3°C° 0 mm 6 mps 730 mmHg 80%
    02:00 -3°C° 0 mm 6 mps 730 mmHg 81%
    03:00 -3°C° 0 mm 6 mps 730 mmHg 81%
    04:00 -3°C° 0 mm 6 mps 730 mmHg 81%
    05:00 -3°C° 0 mm 6 mps 731 mmHg 80%
    06:00 -3°C° 0 mm 6 mps 731 mmHg 79%
    07:00 -3°C° 0 mm 6 mps 731 mmHg 78%
    08:00 -3°C° 0 mm 7 mps 732 mmHg 77%
    09:00 -3°C° 0 mm 7 mps 732 mmHg 76%
    10:00 -2°C° 0 mm 7 mps 732 mmHg 72%
    11:00 -1°C° 0 mm 8 mps 732 mmHg 68%
    12:00 -1°C° 0 mm 8 mps 732 mmHg 65%
    13:00 -1°C° 0 mm 8 mps 732 mmHg 67%
    14:00 -1°C° 0 mm 9 mps 732 mmHg 70%
    15:00 -1°C° 0 mm 9 mps 732 mmHg 72%
    16:00 -1°C° 0 mm 9 mps 732 mmHg 74%
    17:00 -1°C° 0 mm 9 mps 732 mmHg 75%
    18:00 -3°C° 0 mm 10 mps 732 mmHg 76%
    19:00 -1°C° 0.1 mm 9 mps 732 mmHg 77%
    20:00 -1°C° 0.1 mm 9 mps 732 mmHg 78%
    21:00 -1°C° 0.1 mm 9 mps 733 mmHg 79%
    22:00 -1°C° 0 mm 9 mps 733 mmHg 78%
    23:00 -1°C° 0 mm 9 mps 733 mmHg 76%

    26 November, Sunday

    Time Temperature Precipitation Wind Pressure Humidity
    00:00 -1°C° 0 mm 9 mps 734 mmHg 74%
    01:00 -1°C° 0 mm 9 mps 734 mmHg 75%
    02:00 -1°C° 0 mm 9 mps 734 mmHg 76%
    03:00 -1°C° 0 mm 9 mps 735 mmHg 77%
    04:00 -1°C° 0 mm 9 mps 735 mmHg 78%
    05:00 -3°C° 0 mm 9 mps 735 mmHg 79%
    06:00 -2°C° 0 mm 8 mps 736 mmHg 79%
    07:00 -2°C° 0 mm 8 mps 736 mmHg 79%
    08:00 -2°C° 0 mm 8 mps 737 mmHg 79%
    09:00 -2°C° 0 mm 8 mps 737 mmHg 80%
    10:00 -1°C° 0 mm 8 mps 738 mmHg 76%
    11:00 0°C° 0 mm 8 mps 738 mmHg 73%
    12:00 0°C° 0 mm 8 mps 738 mmHg 69%
    13:00 0°C° 0 mm 7 mps 739 mmHg 72%
    14:00 0°C° 0 mm 7 mps 739 mmHg 74%
    15:00 -1°C° 0 mm 6 mps 739 mmHg 76%
    16:00 -1°C° 0 mm 6 mps 739 mmHg 80%
    17:00 -1°C° 0 mm 5 mps 739 mmHg 84%
    18:00 -1°C° 0 mm 5 mps 739 mmHg 88%
    19:00 -1°C° 0 mm 4 mps 739 mmHg 89%
    20:00 -1°C° 0 mm 4 mps 738 mmHg 90%
    21:00 -1°C° 0 mm 4 mps 738 mmHg 90%
    22:00 -1°C° 0.2 mm 4 mps 737 mmHg 91%
    23:00 0°C° 0.2 mm 4 mps 736 mmHg 92%

    27 November, Monday

    Time Temperature Precipitation Wind Pressure Humidity
    00:00 0°C° 0.2 mm 4 mps 735 mmHg 93%
    01:00 +1°C° 1.3 mm 5 mps 734 mmHg 92%
    02:00 +2°C° 1.3 mm 6 mps 733 mmHg 92%
    03:00 +3°C° 1.3 mm 7 mps 732 mmHg 91%
    04:00 +2°C° 0.2 mm 7 mps 732 mmHg 89%
    05:00 +1°C° 0.2 mm 8 mps 731 mmHg 87%
    06:00 +1°C° 0.2 mm 8 mps 730 mmHg 85%
    07:00 0°C° 0 mm 8 mps 730 mmHg 84%
    08:00 0°C° 0 mm 9 mps 730 mmHg 83%
    09:00 0°C° 0 mm 9 mps 730 mmHg 82%
    10:00 0°C° 0 mm 9 mps 730 mmHg 82%
    11:00 +1°C° 0 mm 9 mps 731 mmHg 81%
    12:00 +2°C° 0 mm 9 mps 731 mmHg 81%
    13:00 +1°C° 0 mm 9 mps 731 mmHg 81%
    14:00 +1°C° 0 mm 9 mps 731 mmHg 80%
    15:00 +1°C° 0 mm 8 mps 731 mmHg 80%
    16:00 0°C° 0.1 mm 7 mps 731 mmHg 82%
    17:00 +1°C° 0.1 mm 5 mps 731 mmHg 84%
    18:00 0°C° 0.1 mm 4 mps 732 mmHg 86%
    19:00 +1°C° 0 mm 3 mps 731 mmHg 87%
    20:00 +1°C° 0 mm 2 mps 731 mmHg 88%
    21:00 +1°C° 0 mm 2 mps 731 mmHg 90%
    22:00 +2°C° 0 mm 1 mps 731 mmHg 90%
    23:00 +2°C° 0 mm 1 mps 730 mmHg 90%

    28 November, Tuesday

    Time Temperature Precipitation Wind Pressure Humidity
    00:00 0°C° 0 mm 0 mps 730 mmHg 91%
    01:00 +1°C° 0 mm 1 mps 730 mmHg 91%
    02:00 -1°C° 0 mm 2 mps 730 mmHg 91%
    03:00 -1°C° 0 mm 2 mps 730 mmHg 91%
    04:00 -1°C° 0 mm 3 mps 730 mmHg 92%
    05:00 -2°C° 0 mm 3 mps 730 mmHg 92%
    06:00 -2°C° 0 mm 3 mps 730 mmHg 92%
    07:00 -2°C° 0 mm 3 mps 731 mmHg 92%
    08:00 -1°C° 0 mm 3 mps 731 mmHg 92%
    09:00 -1°C° 0 mm 3 mps 731 mmHg 91%
    10:00 -2°C° 0 mm 4 mps 732 mmHg 87%
    11:00 -1°C° 0 mm 4 mps 732 mmHg 84%
    12:00 0°C° 0 mm 5 mps 732 mmHg 80%
    13:00 0°C° 0.2 mm 5 mps 732 mmHg 82%
    14:00 0°C° 0.2 mm 5 mps 732 mmHg 83%
    15:00 0°C° 0.2 mm 5 mps 732 mmHg 85%
    16:00 -1°C° 0.1 mm 5 mps 732 mmHg 84%
    17:00 -1°C° 0.1 mm 5 mps 732 mmHg 84%
    18:00 -3°C° 0.1 mm 6 mps 732 mmHg 84%
    19:00 -2°C° 0.1 mm 5 mps 732 mmHg 85%
    20:00 -4°C° 0.1 mm 5 mps 732 mmHg 86%
    21:00 -5°C° 0.1 mm 5 mps 732 mmHg 87%
    22:00 -4°C° 0.6 mm 5 mps 732 mmHg 87%
    23:00 -4°C° 0.6 mm 5 mps 732 mmHg 88%
    Show more